| time (UTC) | temp F | wind direction | speed MPH | gust MPH | rain 1hr in | rain 24hr in | rain mn in | humidity % | barometer mb |
| 20260906163028 | 73 | 0.0 | 0.0 | 0.00 | 0.00 | 0.00 | 36 | 1021.7 | |
| 20260906162024 | 73 | 0.0 | 0.0 | 0.00 | 0.00 | 0.00 | 39 | 1021.6 | |
| 20260906161020 | 72 | 0.0 | 0.0 | 0.00 | 0.00 | 0.00 | 40 | 1021.7 | |
| 20260906160019 | 72 | 169 | 0.0 | 2.0 | 0.00 | 0.00 | 0.00 | 40 | 1021.6 |
| 20260906155114 | 73 | 0.0 | 2.0 | 0.00 | 0.00 | 0.00 | 39 | 1021.6 | |
| 20260906154110 | 73 | 90 | 0.0 | 2.0 | 0.00 | 0.00 | 0.00 | 38 | 1021.7 |
| 20260906153107 | 74 | 189 | 1.0 | 2.0 | 0.00 | 0.00 | 0.00 | 37 | 1021.8 |
| 20260906152101 | 75 | 203 | 0.0 | 2.0 | 0.00 | 0.00 | 0.00 | 36 | 1021.9 |
| 20260906151059 | 75 | 67 | 1.0 | 2.0 | 0.00 | 0.00 | 0.00 | 36 | 1021.8 |
| 20260906150056 | 76 | 105 | 0.0 | 4.0 | 0.00 | 0.00 | 0.00 | 36 | 1022.0 |
| 20260906145054 | 76 | 176 | 3.0 | 6.0 | 0.00 | 0.00 | 0.00 | 34 | 1022.1 |
| 20260906144050 | 77 | 175 | 3.0 | 6.0 | 0.00 | 0.00 | 0.00 | 34 | 1022.1 |
| 20260906143046 | 77 | 184 | 1.0 | 4.0 | 0.00 | 0.00 | 0.00 | 35 | 1022.2 |
| 20260906142043 | 75 | 135 | 1.0 | 4.0 | 0.00 | 0.00 | 0.00 | 35 | 1022.4 |
| 20260906141040 | 77 | 178 | 1.0 | 6.0 | 0.00 | 0.00 | 0.00 | 34 | 1022.5 |
| 20260906140034 | 75 | 108 | 0.0 | 2.0 | 0.00 | 0.00 | 0.00 | 36 | 1022.6 |
| 20260906135030 | 75 | 88 | 1.0 | 2.0 | 0.00 | 0.00 | 0.00 | 36 | 1022.7 |
| 20260906134027 | 76 | 143 | 1.0 | 4.0 | 0.00 | 0.00 | 0.00 | 36 | 1022.7 |
| 20260906133023 | 72 | 78 | 3.0 | 6.0 | 0.00 | 0.00 | 0.00 | 39 | 1022.7 |
| 20260906132022 | 75 | 116 | 1.0 | 6.0 | 0.00 | 0.00 | 0.00 | 37 | 1022.8 |
| 20260906131017 | 73 | 71 | 2.0 | 4.0 | 0.00 | 0.00 | 0.00 | 40 | 1023.0 |
| 20260906130113 | 75 | 203 | 0.0 | 2.0 | 0.00 | 0.00 | 0.00 | 38 | 1023.1 |
| 20260906125108 | 73 | 105 | 3.0 | 4.0 | 0.00 | 0.00 | 0.00 | 42 | 1023.2 |
| 20260906124104 | 76 | 166 | 2.0 | 4.0 | 0.00 | 0.00 | 0.00 | 37 | 1023.2 |
| 20260906123101 | 74 | 46 | 1.0 | 2.0 | 0.00 | 0.00 | 0.00 | 40 | 1023.2 |
| 20260906122056 | 74 | 128 | 1.0 | 4.0 | 0.00 | 0.00 | 0.00 | 40 | 1023.3 |
| 20260906121055 | 71 | 191 | 2.0 | 6.0 | 0.00 | 0.00 | 0.00 | 44 | 1023.3 |
| 20260906120050 | 73 | 90 | 1.0 | 6.0 | 0.00 | 0.00 | 0.00 | 43 | 1023.5 |
| 20260906115046 | 72 | 125 | 1.0 | 6.0 | 0.00 | 0.00 | 0.00 | 44 | 1023.5 |
| 20260906114042 | 70 | 177 | 3.0 | 7.0 | 0.00 | 0.00 | 0.00 | 46 | 1023.6 |
| 20260906113039 | 70 | 243 | 1.0 | 4.0 | 0.00 | 0.00 | 0.00 | 46 | 1023.7 |
| 20260906112033 | 69 | 181 | 2.0 | 4.0 | 0.00 | 0.00 | 0.00 | 49 | 1023.8 |
| 20260906111030 | 68 | 146 | 2.0 | 4.0 | 0.00 | 0.00 | 0.00 | 49 | 1023.9 |
| 20260906110027 | 69 | 180 | 2.0 | 4.0 | 0.00 | 0.00 | 0.00 | 49 | 1024.0 |
| 20260906105024 | 68 | 95 | 2.0 | 4.0 | 0.00 | 0.00 | 0.00 | 49 | 1024.1 |
| 20260906104021 | 69 | 161 | 1.0 | 4.0 | 0.00 | 0.00 | 0.00 | 51 | 1024.2 |
| 20260906103018 | 68 | 236 | 1.0 | 4.0 | 0.00 | 0.00 | 0.00 | 51 | 1024.3 |
| 20260906102115 | 69 | 197 | 2.0 | 6.0 | 0.00 | 0.00 | 0.00 | 51 | 1024.3 |
| 20260906101110 | 69 | 179 | 1.0 | 6.0 | 0.00 | 0.00 | 0.00 | 52 | 1024.3 |
| 20260906100108 | 68 | 193 | 0.0 | 4.0 | 0.00 | 0.00 | 0.00 | 54 | 1024.4 |
| 20260906095102 | 67 | 89 | 1.0 | 4.0 | 0.00 | 0.00 | 0.00 | 55 | 1024.5 |
| 20260906094101 | 68 | 185 | 1.0 | 4.0 | 0.00 | 0.00 | 0.00 | 55 | 1024.5 |
| 20260906093057 | 66 | 6 | 2.0 | 4.0 | 0.00 | 0.00 | 0.00 | 56 | 1024.7 |
| 20260906092052 | 66 | 110 | 2.0 | 6.0 | 0.00 | 0.00 | 0.00 | 56 | 1024.7 |
| 20260906091050 | 66 | 71 | 1.0 | 4.0 | 0.00 | 0.00 | 0.00 | 56 | 1024.7 |
| 20260906090046 | 65 | 93 | 2.0 | 6.0 | 0.00 | 0.00 | 0.00 | 59 | 1024.8 |
| 20260906085040 | 64 | 132 | 2.0 | 6.0 | 0.00 | 0.00 | 0.00 | 61 | 1024.9 |
| 20260906084032 | 64 | 83 | 3.0 | 7.0 | 0.00 | 0.00 | 0.00 | 60 | 1024.9 |
| 20260906083026 | 63 | 0.0 | 2.0 | 0.00 | 0.00 | 0.00 | 61 | 1024.8 | |
| 20260906082016 | 62 | 90 | 3.0 | 7.0 | 0.00 | 0.00 | 0.00 | 63 | 1024.7 |
| 20260906081113 | 62 | 91 | 3.0 | 6.0 | 0.00 | 0.00 | 0.00 | 64 | 1024.7 |
| 20260906080105 | 62 | 83 | 2.0 | 7.0 | 0.00 | 0.00 | 0.00 | 65 | 1024.8 |
| 20260906075104 | 60 | 0.0 | 0.0 | 0.00 | 0.00 | 0.00 | 71 | 1024.7 | |
| 20260906074053 | 58 | 180 | 1.0 | 2.0 | 0.00 | 0.00 | 0.00 | 76 | 1024.8 |
| 20260906073043 | 57 | 194 | 1.0 | 2.0 | 0.00 | 0.00 | 0.00 | 78 | 1024.7 |
| 20260906072037 | 56 | 180 | 1.0 | 2.0 | 0.00 | 0.00 | 0.00 | 80 | 1024.6 |
| 20260906071028 | 55 | 0.0 | 0.0 | 0.00 | 0.00 | 0.00 | 82 | 1024.5 | |
| 20260906070025 | 54 | 180 | 1.0 | 2.0 | 0.00 | 0.00 | 0.00 | 84 | 1024.5 |
| 20260906065016 | 54 | 180 | 1.0 | 2.0 | 0.00 | 0.00 | 0.00 | 85 | 1024.4 |
| 20260906064113 | 54 | 180 | 0.0 | 2.0 | 0.00 | 0.00 | 0.00 | 83 | 1024.3 |
| 20260906063104 | 53 | 0.0 | 0.0 | 0.00 | 0.00 | 0.00 | 84 | 1024.4 | |
| 20260906062102 | 52 | 0.0 | 0.0 | 0.00 | 0.00 | 0.00 | 86 | 1024.4 | |
| 20260906061051 | 50 | 0.0 | 0.0 | 0.00 | 0.00 | 0.00 | 88 | 1024.3 | |
| 20260906060042 | 50 | 0.0 | 0.0 | 0.00 | 0.00 | 0.00 | 89 | 1024.2 | |
| 20260906055030 | 50 | 0.0 | 0.0 | 0.00 | 0.00 | 0.00 | 90 | 1024.1 | |
| 20260906054027 | 48 | 0.0 | 0.0 | 0.00 | 0.00 | 0.00 | 91 | 1024.1 | |
| 20260906053018 | 48 | 0.0 | 0.0 | 0.00 | 0.00 | 0.00 | 91 | 1024.1 | |
| 20260906052117 | 47 | 0.0 | 0.0 | 0.00 | 0.00 | 0.00 | 92 | 1023.8 | |
| 20260906051105 | 47 | 0.0 | 0.0 | 0.00 | 0.00 | 0.00 | 92 | 1023.7 | |
| 20260906050101 | 47 | 0.0 | 0.0 | 0.00 | 0.00 | 0.00 | 92 | 1023.8 | |
| 20260906045051 | 47 | 0.0 | 0.0 | 0.00 | 0.00 | 0.00 | 92 | 1023.8 | |
| 20260906044041 | 47 | 0.0 | 0.0 | 0.00 | 0.00 | 0.00 | 92 | 1023.9 | |
| 20260906043038 | 48 | 0.0 | 0.0 | 0.00 | 0.00 | 0.00 | 91 | 1023.8 | |
| 20260906042029 | 47 | 68 | 0.0 | 2.0 | 0.00 | 0.00 | 0.00 | 91 | 1023.6 |
| 20260906041018 | 48 | 0.0 | 0.0 | 0.00 | 0.00 | 0.00 | 90 | 1023.6 | |
| 20260906040015 | 48 | 0.0 | 0.0 | 0.00 | 0.00 | 0.00 | 90 | 1023.5 | |
| 20260906035106 | 49 | 0.0 | 0.0 | 0.00 | 0.00 | 0.00 | 89 | 1023.6 | |
| 20260906034104 | 49 | 0.0 | 0.0 | 0.00 | 0.00 | 0.00 | 89 | 1023.5 | |
| 20260906033052 | 50 | 0.0 | 0.0 | 0.00 | 0.00 | 0.00 | 88 | 1023.5 | |
| 20260906032043 | 50 | 225 | 0.0 | 2.0 | 0.00 | 0.00 | 0.00 | 87 | 1023.6 |
| 20260906031039 | 50 | 0.0 | 0.0 | 0.00 | 0.00 | 0.00 | 87 | 1023.5 | |
| 20260906030030 | 50 | 252 | 1.0 | 2.0 | 0.00 | 0.00 | 0.00 | 87 | 1023.3 |
| 20260906025027 | 50 | 229 | 1.0 | 2.0 | 0.00 | 0.00 | 0.00 | 87 | 1023.4 |
| 20260906024019 | 50 | 0.0 | 0.0 | 0.00 | 0.00 | 0.00 | 88 | 1023.3 | |
| 20260906023116 | 50 | 0.0 | 2.0 | 0.00 | 0.00 | 0.00 | 87 | 1023.3 | |
| 20260906022107 | 51 | 225 | 0.0 | 2.0 | 0.00 | 0.00 | 0.00 | 85 | 1023.4 |
| 20260906021103 | 51 | 248 | 0.0 | 2.0 | 0.00 | 0.01 | 0.00 | 85 | 1023.2 |
| 20260906020053 | 51 | 233 | 2.0 | 4.0 | 0.00 | 0.04 | 0.00 | 86 | 1023.2 |
| 20260906015044 | 51 | 235 | 1.0 | 2.0 | 0.00 | 0.06 | 0.00 | 85 | 1023.1 |
| 20260906014040 | 51 | 0.0 | 2.0 | 0.00 | 0.08 | 0.00 | 85 | 1022.9 | |
| 20260906013031 | 52 | 0.0 | 2.0 | 0.00 | 0.08 | 0.00 | 84 | 1022.9 | |
| 20260906012027 | 52 | 0.0 | 0.0 | 0.00 | 0.08 | 0.00 | 84 | 1022.9 | |
| 20260906011017 | 52 | 230 | 1.0 | 2.0 | 0.00 | 0.08 | 0.00 | 82 | 1023.0 |
| 20260906010114 | 53 | 0.0 | 0.0 | 0.00 | 0.08 | 0.00 | 82 | 1022.8 | |
| 20260906005103 | 53 | 248 | 1.0 | 2.0 | 0.00 | 0.08 | 0.00 | 82 | 1022.9 |
| 20260906004058 | 53 | 235 | 1.0 | 2.0 | 0.00 | 0.08 | 0.00 | 81 | 1022.8 |
| 20260906003049 | 54 | 228 | 2.0 | 2.0 | 0.00 | 0.08 | 0.00 | 80 | 1022.9 |
| 20260906002039 | 54 | 241 | 1.0 | 4.0 | 0.00 | 0.08 | 0.00 | 80 | 1022.7 |
| 20260906001030 | 54 | 245 | 1.0 | 2.0 | 0.00 | 0.08 | 0.00 | 79 | 1022.7 |
| 20260906000027 | 54 | 239 | 2.0 | 4.0 | 0.00 | 0.08 | 0.00 | 79 | 1022.8 |
| 20260905235018 | 53 | 225 | 0.0 | 2.0 | 0.00 | 0.08 | 0.00 | 81 | 1022.6 |
| 20260905234115 | 54 | 248 | 0.0 | 2.0 | 0.00 | 0.08 | 0.00 | 81 | 1022.5 |
| 20260905233108 | 54 | 0.0 | 0.0 | 0.00 | 0.08 | 0.00 | 79 | 1022.4 | |
| 20260905232103 | 54 | 0.0 | 0.0 | 0.00 | 0.08 | 0.00 | 79 | 1022.4 | |
| 20260905231053 | 55 | 0.0 | 0.0 | 0.00 | 0.08 | 0.00 | 78 | 1022.4 | |
| 20260905230051 | 55 | 234 | 1.0 | 2.0 | 0.00 | 0.08 | 0.00 | 76 | 1022.2 |
| 20260905225040 | 56 | 236 | 0.0 | 2.0 | 0.00 | 0.08 | 0.00 | 75 | 1022.2 |
| 20260905224039 | 56 | 225 | 1.0 | 2.0 | 0.00 | 0.08 | 0.00 | 75 | 1022.1 |
| 20260905223030 | 57 | 217 | 1.0 | 2.0 | 0.00 | 0.08 | 0.00 | 72 | 1021.9 |
| 20260905222025 | 57 | 240 | 1.0 | 2.0 | 0.00 | 0.08 | 0.00 | 72 | 1021.9 |
| 20260905221015 | 58 | 235 | 1.0 | 4.0 | 0.00 | 0.08 | 0.00 | 71 | 1021.8 |
| 20260905220106 | 58 | 226 | 2.0 | 4.0 | 0.00 | 0.08 | 0.00 | 70 | 1021.8 |
| 20260905215104 | 58 | 225 | 1.0 | 2.0 | 0.00 | 0.08 | 0.08 | 69 | 1021.7 |
| 20260905214056 | 58 | 0.0 | 0.0 | 0.00 | 0.08 | 0.08 | 69 | 1021.6 | |
| 20260905213050 | 59 | 218 | 0.0 | 2.0 | 0.00 | 0.08 | 0.08 | 68 | 1021.4 |
| 20260905212042 | 59 | 240 | 2.0 | 2.0 | 0.00 | 0.08 | 0.08 | 67 | 1021.5 |
| 20260905211037 | 60 | 225 | 1.0 | 2.0 | 0.00 | 0.08 | 0.08 | 66 | 1021.5 |
| 20260905210028 | 60 | 232 | 0.0 | 2.0 | 0.00 | 0.08 | 0.08 | 65 | 1021.4 |
| 20260905205018 | 60 | 0.0 | 0.0 | 0.00 | 0.08 | 0.08 | 65 | 1021.4 | |
| 20260905204113 | 60 | 0.0 | 0.0 | 0.00 | 0.08 | 0.08 | 64 | 1021.2 | |
| 20260905203103 | 60 | 0.0 | 0.0 | 0.00 | 0.08 | 0.08 | 65 | 1021.3 | |
| 20260905202055 | 60 | 0.0 | 0.0 | 0.00 | 0.08 | 0.08 | 64 | 1021.1 | |
| 20260905201051 | 61 | 0.0 | 0.0 | 0.00 | 0.08 | 0.08 | 63 | 1021.0 | |
| 20260905200043 | 62 | 0.0 | 0.0 | 0.00 | 0.08 | 0.08 | 60 | 1020.8 | |
| 20260905195040 | 63 | 0.0 | 2.0 | 0.00 | 0.08 | 0.08 | 57 | 1020.8 | |
| 20260905194028 | 63 | 214 | 0.0 | 2.0 | 0.00 | 0.08 | 0.08 | 57 | 1020.8 |
| 20260905193018 | 64 | 201 | 1.0 | 2.0 | 0.00 | 0.08 | 0.08 | 56 | 1020.6 |
| 20260905192116 | 64 | 0.0 | 0.0 | 0.00 | 0.08 | 0.08 | 55 | 1020.4 | |
| 20260905191106 | 65 | 204 | 1.0 | 6.0 | 0.00 | 0.08 | 0.08 | 54 | 1020.4 |
| 20260905185055 | 65 | 154 | 1.0 | 4.0 | 0.00 | 0.08 | 0.08 | 53 | 1020.2 |
| 20260905184051 | 66 | 68 | 0.0 | 2.0 | 0.00 | 0.08 | 0.08 | 53 | 1020.0 |
| 20260905183043 | 66 | 244 | 1.0 | 2.0 | 0.00 | 0.08 | 0.08 | 52 | 1020.0 |
| 20260905182040 | 67 | 203 | 1.0 | 2.0 | 0.00 | 0.08 | 0.08 | 52 | 1019.9 |
| 20260905181030 | 68 | 180 | 1.0 | 2.0 | 0.00 | 0.08 | 0.08 | 51 | 1019.8 |
| 20260905180025 | 68 | 135 | 1.0 | 4.0 | 0.00 | 0.08 | 0.08 | 50 | 1019.6 |
| 20260905175016 | 69 | 111 | 3.0 | 7.0 | 0.00 | 0.08 | 0.08 | 48 | 1019.5 |
| 20260905174115 | 70 | 212 | 2.0 | 6.0 | 0.00 | 0.08 | 0.08 | 46 | 1019.3 |
| 20260905173106 | 71 | 245 | 2.0 | 6.0 | 0.00 | 0.08 | 0.08 | 44 | 1019.1 |
| 20260905172101 | 72 | 246 | 3.0 | 9.0 | 0.00 | 0.08 | 0.08 | 43 | 1019.1 |
| 20260905171051 | 72 | 259 | 4.0 | 7.0 | 0.00 | 0.08 | 0.08 | 41 | 1018.9 |
| 20260905170041 | 73 | 245 | 4.0 | 8.0 | 0.00 | 0.08 | 0.08 | 40 | 1018.8 |
| 20260905165037 | 73 | 226 | 3.0 | 6.0 | 0.00 | 0.08 | 0.08 | 39 | 1018.6 |
| 20260905164027 | 74 | 235 | 4.0 | 13.0 | 0.00 | 0.08 | 0.08 | 38 | 1018.7 |